Voltar ao catálogo

MAROC TUBSAT

AtivoCiênciaSSO
NORAD 27004·PAYLOAD·🇩🇪 Germany

Lançado Dec 10, 2001 de Baikonur Cosmodrome

Loading…

Próximas Passagens (próximas 24 horas)

TLE

AtualizadoSource: Space-Track

Época: Sep 14, 2026, 09:15 UTC

1 27004U 01056D   26257.38559299 -.00000044  00000-0  31395-5 0  9992
2 27004  99.8136  75.9582 0019042 274.9243 202.1561 13.70265560238403

Acompanhe MAROC TUBSAT em tempo real com AllMySat

Download on the App Store